• în Republica Moldova
  • Lista ţărilor
  • Pe 7 zile
  • Temperatura apei
  • Hartă satelitară
  • Meteo pe hartă
  • Widget-uri
  • user-avatar
    Intrare

    Meteo pe oră la Annaba

    Astăzi, 14 Decembrie, Joi

    Timp Temperatura Precipitaţii Vânt Presiune Umiditate
    00:00 +10°C° 0 mm 4 m/s 767 mmHg 85%
    01:00 +10°C° 0 mm 4 m/s 767 mmHg 85%
    02:00 +10°C° 0 mm 3 m/s 767 mmHg 85%
    03:00 +10°C° 0 mm 3 m/s 767 mmHg 85%
    04:00 +10°C° 0 mm 3 m/s 766 mmHg 86%
    05:00 +9°C° 0 mm 3 m/s 766 mmHg 85%
    06:00 +9°C° 0 mm 3 m/s 766 mmHg 85%
    07:00 +9°C° 0 mm 3 m/s 766 mmHg 85%
    08:00 +11°C° 0 mm 3 m/s 766 mmHg 79%
    09:00 +12°C° 0 mm 3 m/s 766 mmHg 72%
    10:00 +14°C° 0 mm 3 m/s 766 mmHg 66%
    11:00 +16°C° 0 mm 2 m/s 766 mmHg 58%
    12:00 +18°C° 0 mm 2 m/s 765 mmHg 51%
    13:00 +19°C° 0 mm 2 m/s 765 mmHg 43%
    14:00 +19°C° 0 mm 2 m/s 764 mmHg 45%
    15:00 +19°C° 0 mm 2 m/s 764 mmHg 46%
    16:00 +19°C° 0 mm 1 m/s 763 mmHg 48%
    17:00 +18°C° 0 mm 1 m/s 763 mmHg 51%
    18:00 +15°C° 0 mm 2 m/s 763 mmHg 55%
    19:00 +13°C° 0 mm 2 m/s 764 mmHg 58%
    20:00 +13°C° 0 mm 2 m/s 763 mmHg 57%
    21:00 +13°C° 0 mm 2 m/s 763 mmHg 56%
    22:00 +13°C° 0 mm 2 m/s 763 mmHg 56%
    23:00 +13°C° 0 mm 2 m/s 763 mmHg 54%

    Mâine, 15 Decembrie, Vineri

    Timp Temperatura Precipitaţii Vânt Presiune Umiditate
    00:00 +13°C° 0 mm 2 m/s 762 mmHg 52%
    01:00 +12°C° 0 mm 2 m/s 762 mmHg 51%
    02:00 +11°C° 0 mm 3 m/s 762 mmHg 51%
    03:00 +11°C° 0 mm 3 m/s 761 mmHg 52%
    04:00 +11°C° 0 mm 3 m/s 761 mmHg 53%
    05:00 +11°C° 0 mm 3 m/s 761 mmHg 54%
    06:00 +11°C° 0 mm 3 m/s 760 mmHg 55%
    07:00 +11°C° 0 mm 3 m/s 760 mmHg 56%
    08:00 +13°C° 0 mm 3 m/s 760 mmHg 53%
    09:00 +16°C° 0 mm 3 m/s 760 mmHg 50%
    10:00 +17°C° 0 mm 3 m/s 759 mmHg 47%
    11:00 +19°C° 0 mm 3 m/s 759 mmHg 43%
    12:00 +20°C° 0 mm 4 m/s 758 mmHg 39%
    13:00 +22°C° 0 mm 4 m/s 758 mmHg 36%
    14:00 +21°C° 0 mm 4 m/s 757 mmHg 40%
    15:00 +21°C° 0 mm 3 m/s 757 mmHg 43%
    16:00 +20°C° 0 mm 3 m/s 756 mmHg 47%
    17:00 +18°C° 0 mm 3 m/s 756 mmHg 52%
    18:00 +17°C° 0 mm 2 m/s 756 mmHg 56%
    19:00 +15°C° 0 mm 2 m/s 757 mmHg 61%
    20:00 +15°C° 0 mm 2 m/s 757 mmHg 59%
    21:00 +15°C° 0 mm 2 m/s 757 mmHg 58%
    22:00 +15°C° 0 mm 2 m/s 757 mmHg 56%
    23:00 +15°C° 0 mm 2 m/s 756 mmHg 55%

    Poimâine, 16 Decembrie, Sâmbătă

    Timp Temperatura Precipitaţii Vânt Presiune Umiditate
    00:00 +15°C° 0 mm 2 m/s 756 mmHg 53%
    01:00 +15°C° 0 mm 2 m/s 756 mmHg 52%
    02:00 +14°C° 0,1 mm 3 m/s 755 mmHg 53%
    03:00 +13°C° 0,1 mm 3 m/s 755 mmHg 55%
    04:00 +13°C° 0,1 mm 3 m/s 755 mmHg 56%
    05:00 +13°C° 0,4 mm 4 m/s 755 mmHg 60%
    06:00 +13°C° 0,4 mm 4 m/s 755 mmHg 63%
    07:00 +13°C° 0,4 mm 4 m/s 755 mmHg 67%
    08:00 +12°C° 1,1 mm 4 m/s 756 mmHg 73%
    09:00 +12°C° 1,1 mm 5 m/s 756 mmHg 80%
    10:00 +10°C° 1,1 mm 6 m/s 757 mmHg 86%
    11:00 +10°C° 0,6 mm 6 m/s 758 mmHg 86%
    12:00 +10°C° 0,6 mm 6 m/s 758 mmHg 85%
    13:00 +10°C° 0,6 mm 6 m/s 758 mmHg 85%
    14:00 +11°C° 0,1 mm 6 m/s 759 mmHg 80%
    15:00 +11°C° 0,1 mm 7 m/s 759 mmHg 75%
    16:00 +11°C° 0,1 mm 7 m/s 760 mmHg 70%
    17:00 +10°C° 0 mm 7 m/s 760 mmHg 74%
    18:00 +10°C° 0 mm 6 m/s 761 mmHg 77%
    19:00 +9°C° 0 mm 5 m/s 761 mmHg 81%
    20:00 +9°C° 0,2 mm 5 m/s 762 mmHg 82%
    21:00 +8°C° 0,2 mm 5 m/s 762 mmHg 83%
    22:00 +8°C° 0,2 mm 5 m/s 763 mmHg 84%
    23:00 +8°C° 0,3 mm 5 m/s 763 mmHg 85%

    17 Decembrie, Duminică

    Timp Temperatura Precipitaţii Vânt Presiune Umiditate
    00:00 +8°C° 0,3 mm 5 m/s 763 mmHg 85%
    01:00 +8°C° 0,3 mm 4 m/s 763 mmHg 86%
    02:00 +8°C° 0,3 mm 4 m/s 763 mmHg 86%
    03:00 +8°C° 0,3 mm 4 m/s 763 mmHg 85%
    04:00 +8°C° 0,3 mm 4 m/s 763 mmHg 85%
    05:00 +7°C° 0,2 mm 4 m/s 764 mmHg 85%
    06:00 +7°C° 0,2 mm 4 m/s 764 mmHg 86%
    07:00 +7°C° 0,2 mm 4 m/s 764 mmHg 86%
    08:00 +8°C° 0,3 mm 4 m/s 765 mmHg 84%
    09:00 +10°C° 0,3 mm 4 m/s 765 mmHg 82%
    10:00 +11°C° 0,3 mm 3 m/s 766 mmHg 79%
    11:00 +11°C° 0,2 mm 4 m/s 766 mmHg 78%
    12:00 +11°C° 0,2 mm 4 m/s 765 mmHg 76%
    13:00 +11°C° 0,2 mm 4 m/s 765 mmHg 75%
    14:00 +11°C° 0,1 mm 4 m/s 766 mmHg 75%
    15:00 +10°C° 0,1 mm 5 m/s 766 mmHg 75%
    16:00 +10°C° 0,1 mm 5 m/s 766 mmHg 76%
    17:00 +9°C° 0 mm 5 m/s 766 mmHg 79%
    18:00 +8°C° 0 mm 5 m/s 767 mmHg 81%
    19:00 +8°C° 0 mm 5 m/s 767 mmHg 84%
    20:00 +7°C° 0,1 mm 5 m/s 768 mmHg 84%
    21:00 +7°C° 0,1 mm 5 m/s 768 mmHg 84%
    22:00 +7°C° 0,1 mm 5 m/s 768 mmHg 84%
    23:00 +7°C° 0,1 mm 5 m/s 769 mmHg 85%

    18 Decembrie, Luni

    Timp Temperatura Precipitaţii Vânt Presiune Umiditate
    00:00 +7°C° 0,1 mm 6 m/s 769 mmHg 85%
    01:00 +7°C° 0,1 mm 6 m/s 769 mmHg 85%
    02:00 +7°C° 0,2 mm 5 m/s 769 mmHg 85%
    03:00 +7°C° 0,2 mm 5 m/s 769 mmHg 85%
    04:00 +7°C° 0,2 mm 5 m/s 769 mmHg 85%
    05:00 +7°C° 0,1 mm 4 m/s 769 mmHg 85%
    06:00 +7°C° 0,1 mm 4 m/s 769 mmHg 84%
    07:00 +7°C° 0,1 mm 3 m/s 769 mmHg 84%
    08:00 +9°C° 0,1 mm 3 m/s 770 mmHg 79%
    09:00 +10°C° 0,1 mm 3 m/s 770 mmHg 74%
    10:00 +11°C° 0,1 mm 3 m/s 771 mmHg 69%
    11:00 +12°C° 0,1 mm 3 m/s 770 mmHg 67%
    12:00 +12°C° 0,1 mm 3 m/s 770 mmHg 64%
    13:00 +13°C° 0,1 mm 3 m/s 770 mmHg 61%
    14:00 +13°C° 0,1 mm 2 m/s 770 mmHg 63%
    15:00 +13°C° 0,1 mm 2 m/s 770 mmHg 66%
    16:00 +13°C° 0,1 mm 2 m/s 770 mmHg 68%
    17:00 +12°C° 0,1 mm 2 m/s 770 mmHg 74%
    18:00 +10°C° 0,1 mm 2 m/s 770 mmHg 79%
    19:00 +10°C° 0,1 mm 1 m/s 770 mmHg 85%
    20:00 +9°C° 0,2 mm 2 m/s 771 mmHg 86%
    21:00 +9°C° 0,2 mm 2 m/s 771 mmHg 87%
    22:00 +9°C° 0,2 mm 3 m/s 771 mmHg 88%
    23:00 +9°C° 0,3 mm 3 m/s 771 mmHg 86%

    19 Decembrie, Marţi

    Timp Temperatura Precipitaţii Vânt Presiune Umiditate
    00:00 +9°C° 0,3 mm 3 m/s 771 mmHg 85%
    01:00 +8°C° 0,3 mm 4 m/s 771 mmHg 84%
    02:00 +8°C° 0,2 mm 4 m/s 770 mmHg 85%
    03:00 +7°C° 0,2 mm 4 m/s 770 mmHg 85%
    04:00 +7°C° 0,2 mm 4 m/s 770 mmHg 86%
    05:00 +7°C° 0,3 mm 4 m/s 770 mmHg 86%
    06:00 +7°C° 0,3 mm 4 m/s 769 mmHg 86%
    07:00 +7°C° 0,3 mm 4 m/s 769 mmHg 86%
    08:00 +7°C° 1 mm 5 m/s 769 mmHg 86%
    09:00 +8°C° 1 mm 5 m/s 769 mmHg 85%
    10:00 +8°C° 1 mm 5 m/s 769 mmHg 85%
    11:00 +9°C° 1,3 mm 5 m/s 769 mmHg 84%
    12:00 +9°C° 1,3 mm 5 m/s 768 mmHg 84%
    13:00 +10°C° 1,3 mm 5 m/s 768 mmHg 83%
    14:00 +10°C° 1,4 mm 5 m/s 768 mmHg 84%
    15:00 +11°C° 1,4 mm 4 m/s 767 mmHg 85%
    16:00 +11°C° 1,4 mm 4 m/s 767 mmHg 86%
    17:00 +11°C° 0,8 mm 4 m/s 767 mmHg 87%
    18:00 +11°C° 0,8 mm 3 m/s 767 mmHg 88%
    19:00 +10°C° 0,8 mm 3 m/s 768 mmHg 89%
    20:00 +10°C° 0,3 mm 3 m/s 768 mmHg 89%
    21:00 +10°C° 0,3 mm 3 m/s 769 mmHg 90%
    22:00 +10°C° 0,3 mm 3 m/s 769 mmHg 90%
    23:00 +10°C° 0,3 mm 4 m/s 769 mmHg 91%
    Arată mai mult